Content
SEND FEEDBACK

Daily
Averages
Monthly
Summary
Greece

ANDRAVIDHA, GREECE


Home > Europe > Greece
Elevation: 50 feet     Latitude: 37 55N     Longitude: 021 17E

WEATHER
 
SELECT A DAY
Number of Records: 92,808;   Date Range: 7/11/96 - 10/21/14
 
SHARE

PRINT THIS DATA

[ ← Previous Day ]
WEATHER ALMANAC - JANUARY 3, 2013
[ Next Day → ]
[ °C ]   °F
Weather ElementAverageHighLow
Temperature49.6 °F59 °F (11:50 am)39.2 °F (8:20 am)
Dewpoint43.9 °F48.2 °F (10:50 am)37.4 °F (8:20 am)
Humidity80.9 %93 % (2:50 am)58 % (2:00 pm)
Barometer30.38 in30.42 in (10:50 am)30.33 in (1:50 am)
Wind Speed2 mph8.1 mph (1:50 pm)
Weather ElementAverage
Visibility6.2 mi
Wind DirectionESE (109.8 °)

Weather ElementTotal
Precipitation---
Heating Degree Days15.9 (Base 65)
Averaged from 43 records on January 3, 2013
WEATHER CONDITIONS BREAKOUT
WIND DIRECTION BREAKOUT
WEATHER BY HOUR - JANUARY 3, 2013
[ °C ]   °F
Local TimeTemperatureDewpointHumidityBarometerVisibilityWind DirectionWind SpeedGust SpeedPrecipitationEventsConditions
1:50 AM42.8 °F39.2 °F87 %30.33 in6.2 miCalmScattered Clouds
2:50 AM42.8 °F41.0 °F93 %30.36 in6.2 miCalmScattered Clouds
3:50 AM42.8 °F39.2 °F87 %30.36 in6.2 miCalmPartly Cloudy
4:50 AM44.6 °F41.0 °F87 %30.36 in6.2 miCalmPartly Cloudy
5:20 AM44.6 °F41.0 °F87 %30.36 in6.2 miCalmPartly Cloudy
5:50 AM44.6 °F41.0 °F87 %30.36 in6.2 miCalmScattered Clouds
6:20 AM44.6 °F41.0 °F87 %30.36 in6.2 miCalmScattered Clouds
6:50 AM42.8 °F41.0 °F93 %30.36 in6.2 miCalmPartly Cloudy
7:20 AM42.8 °F39.2 °F87 %30.36 in6.2 miCalmScattered Clouds
7:50 AM41.0 °F39.2 °F93 %30.39 in6.2 miCalmScattered Clouds
8:00 AM41.0 °F38.0 °F86 %30.39 in6.0 miCalmScattered Clouds
8:20 AM39.2 °F37.4 °F93 %30.39 in6.2 miCalmMostly Cloudy
8:50 AM42.8 °F39.2 °F87 %30.39 in5.6 miCalmMostly Cloudy
9:20 AM44.6 °F42.8 °F93 %30.39 in5.6 miCalmMostly Cloudy
9:50 AM48.2 °F46.4 °F93 %30.39 in6.2 miCalmMostly Cloudy
10:20 AM53.6 °F46.4 °F77 %30.39 in6.2 miCalmMostly Cloudy
10:50 AM55.4 °F48.2 °F77 %30.42 in6.2 miCalmMostly Cloudy
11:20 AM57.2 °F48.2 °F72 %30.42 in6.2 miCalmMostly Cloudy
11:50 AM59.0 °F46.4 °F63 %30.42 in6.2 miNorth (350°)5.8 mphMostly Cloudy
12:20 PM57.2 °F48.2 °F72 %30.42 in6.2 miNNW (340°)6.9 mphMostly Cloudy
12:50 PM57.2 °F46.4 °F67 %30.39 in6.2 miNorth (360°)6.9 mphMostly Cloudy
1:20 PM57.2 °F46.4 °F67 %30.39 in6.2 miNorth (360°)6.9 mphMostly Cloudy
1:50 PM59.0 °F46.4 °F63 %30.39 in6.2 miNorth (350°)8.1 mphMostly Cloudy
2:00 PM58.0 °F47.0 °F58 %30.40 in6.0 miNorth (350°)8.1 mphScattered Clouds
2:20 PM59.0 °F46.4 °F63 %30.39 in6.2 miNorth (350°)8.1 mphMostly Cloudy
2:50 PM59.0 °F46.4 °F63 %30.36 in6.2 miNNW (340°)6.9 mphMostly Cloudy
3:20 PM59.0 °F46.4 °F63 %30.36 in6.2 miNNW (340°)6.9 mphMostly Cloudy
3:50 PM55.4 °F48.2 °F77 %30.36 in6.2 miNNW (340°)5.8 mphMostly Cloudy
4:20 PM55.4 °F48.2 °F77 %30.36 in6.2 miNNW (340°)5.8 mphMostly Cloudy
4:50 PM53.6 °F46.4 °F77 %30.36 in6.2 miNNW (340°)5.8 mphMostly Cloudy
5:20 PM51.8 °F46.4 °F82 %30.36 in6.2 miNNW (340°)5.8 mphMostly Cloudy
5:50 PM50.0 °F44.6 °F82 %30.36 in6.2 miCalmScattered Clouds
6:20 PM50.0 °F44.6 °F82 %30.36 in6.2 miCalmScattered Clouds
6:50 PM50.0 °F44.6 °F82 %30.36 in6.2 miCalmScattered Clouds
7:20 PM50.0 °F44.6 °F82 %30.36 in6.2 miCalmScattered Clouds
7:50 PM48.2 °F44.6 °F87 %30.39 in6.2 miCalmMostly Cloudy
8:00 PM49.0 °F44.0 °F76 %30.39 in6.0 miCalmScattered Clouds
8:20 PM48.2 °F44.6 °F87 %30.39 in6.2 miCalmMostly Cloudy
8:50 PM48.2 °F44.6 °F87 %30.39 in6.2 miCalmMostly Cloudy
9:20 PM46.4 °F42.8 °F87 %30.39 in6.2 miCalmMostly Cloudy
9:50 PM46.4 °F42.8 °F87 %30.36 in6.2 miCalmMostly Cloudy
10:20 PM46.4 °F42.8 °F87 %30.36 in6.2 miCalmMostly Cloudy
10:50 PM44.6 °F42.8 °F93 %30.36 in6.2 miCalmScattered Clouds
Hourly data recorded from LGAD, located miles away from Andravidha, Greece







STORIES FROM OUR PARTNERS